Carcara IV

operational
NORAD ID: 60546 Int'l Des: 2024-149 Owner: FAB/ICEYE Country: BR
LEOCIRCULARRETROGRADESSO

About Carcara IV

Description loading...

Live Position

Loading 3D Globe...

Upcoming Passes

Altitude History

Altitude vs Time

uPlot chart will show altitude changes over time

Two-Line Element Set

1 60546U 24149CG 26049.16382251 .00004142 00000-0 34602-3 0 9999
2 60546 97.6891 127.7973 0006542 112.2372 247.9546 14.99061261 82280
Epoch: Feb 18, 2026 • Age: 15 hours

Current Status

Altitude 577.7 km
Velocity 7.58 km/s
Sub-Earth Point 64.84°N, 43.42°E
Launch Date Aug 16, 2024
Age 1.5 years
Type other

Technical Details

Classification Payload
Mass 80.00 kg
Dry Mass 80.00 kg
Total Mass 80.00 kg
Length 0.80 m
Diameter 0.60 m
Span 1.50 m
Shape Box + pan
Manufacturer ICEYE
Bus Type ICEYE
Phase Status In Orbit
Owner/State FAB/ICEYE/BR

Large Constellations

Loading constellations...